Lid_Strength_Index
1 3 4 5 11 12 14 12 9 9 9 7 7 7 7 6 8 12 3 1 0 1 -0 -0 -0 -1 -1 -1 -1 -1 -1 -1 -1 -1 -1 -1 -1 -1 -1 -1 -1 -1 -1 -1 -1 -1 -1 -1 -2
3 3 5 8 13 16 14 10 10 8 6 6 6 7 7 8 4 4 3 1 0 0 -0 -0 -0 -0 -1 -1 -1 -1 -1 -1 -1 -1 -1 -1 -1 -1 -1 -1 -1 -1 -1 -1 -1 -1 -1 -1 -1
3 3 8 12 14 14 14 10 10 7 6 6 7 6 6 6 3 3 2 1 0 0 -0 -0 -0 -0 -0 -1 -1 -1 -1 -1 -1 -1 -1 -1 -1 -1 -1 -1 -1 -1 -2 -1 -1 -1 -1 -1 -1
5 7 8 14 15 12 10 9 8 8 6 6 6 7 4 3 3 3 2 0 1 0 -0 -0 0 -0 -1 -1 -1 -1 -1 -1 -1 -1 -1 -1 -1 -1 -1 -1 -1 -1 -1 -2 -1 -1 -2 -1 -1
6 8 13 15 14 11 9 8 8 7 6 6 7 8 6 3 3 2 2 1 1 1 -0 -0 0 -0 -0 -1 -1 -1 -1 -1 -1 -1 -1 -1 -1 -1 -1 -1 -1 -1 -1 -1 -1 -1 -1 -1 -1
9 9 14 16 13 10 8 8 8 6 6 6 8 7 6 3 4 3 2 1 1 1 0 -0 -0 -0 -0 -0 -0 -0 -0 -0 -0 -0 -1 -1 -1 -1 -1 -1 -1 -1 -1 -1 -1 -1 -1 -1 -1
10 11 13 14 12 11 9 7 7 6 8 7 5 8 5 4 3 2 2 1 1 0 0 -0 -0 -0 0 0 0 0 -0 -0 -0 -0 -0 -0 -0 -1 -1 -1 -1 -1 -1 -1 -1 -1 -1 -1 -1
9 10 13 11 12 11 8 7 6 7 7 3 5 8 8 4 3 2 2 1 1 1 0 0 -0 -0 -0 -0 0 0 0 0 -0 -0 -0 0 -0 -1 -1 -1 -1 -1 -1 -1 -1 -1 -1 -1 -1
9 14 13 12 12 10 7 7 6 6 7 5 5 5 4 3 2 2 2 2 2 1 1 0 0 0 -0 -0 -0 -0 -0 -0 -0 -0 0 0 0 -0 -0 -0 -0 -1 -1 -1 -1 -1 -1 -1 -1
10 15 13 9 8 9 7 9 8 7 7 7 6 4 3 3 3 3 4 4 3 2 1 1 0 0 0 -0 -0 -0 -0 -0 -0 -0 0 -0 1 0 -0 -0 -0 -0 -0 -1 -1 -1 -1 -1 0
10 12 11 9 7 7 7 8 8 8 9 7 6 5 4 3 4 3 3 3 3 2 1 1 1 0 0 0 0 0 -0 -0 -0 0 -0 1 0 0 0 0 0 1 -0 0 -0 -0 0 0 1
11 9 9 10 8 7 7 7 9 8 7 6 5 4 4 4 4 4 3 3 3 2 2 1 1 1 2 0 1 1 1 0 0 0 -0 0 1 1 2 0 0 1 1 1 1 1 1 1 0
9 10 8 8 8 9 7 7 8 8 7 6 6 4 4 4 4 3 3 2 2 2 2 1 1 1 1 0 1 1 0 0 0 0 -0 0 0 1 1 0 0 0 1 1 0 0 0 0 0
8 9 8 7 8 8 10 8 8 7 6 6 7 8 8 5 4 3 3 3 3 2 2 1 1 0 0 0 1 0 0 0 0 -0 -0 -0 0 1 0 0 0 1 0 0 0 1 0 0 0
7 10 9 8 8 8 8 11 9 7 7 7 7 8 7 6 6 6 3 3 2 2 2 2 1 0 1 1 1 0 0 0 0 0 0 -0 0 0 1 0 1 1 1 1 1 1 1 1 0
9 9 12 10 9 9 8 12 10 8 7 7 7 7 7 6 5 5 4 2 2 2 2 2 1 1 1 1 1 1 0 0 0 0 -0 -0 -0 0 1 1 1 1 1 1 1 1 1 1 1
11 15 13 11 10 10 9 11 9 8 8 8 7 7 7 7 6 6 5 3 2 2 2 2 1 1 1 0 1 1 0 0 0 0 -0 -0 0 -0 0 1 1 1 1 1 1 1 1 2 2
15 14 13 12 11 11 12 11 9 7 7 8 9 8 7 6 6 6 4 4 2 1 1 1 1 1 1 1 1 1 1 1 1 0 0 0 1 -0 0 1 1 0 1 1 1 1 1 1 2
11 12 12 11 9 11 12 12 10 8 8 7 9 10 9 8 5 4 5 4 2 2 2 2 2 1 1 1 2 2 2 1 1 1 0 0 0 1 0 1 1 0 1 1 1 2 2 2 2
11 13 12 10 8 9 11 12 11 9 8 7 7 8 8 9 8 7 4 4 3 2 2 2 2 1 1 1 1 1 1 1 1 1 1 0 0 0 0 0 1 1 1 1 1 1 3 2 2
11 12 12 12 9 8 10 11 12 10 9 7 7 7 7 8 8 8 6 5 4 3 2 2 2 2 1 1 1 1 2 2 2 2 1 1 0 0 0 1 0 1 1 2 1 1 2 3 3
14 9 10 11 11 14 9 17 11 10 9 9 8 8 9 8 7 7 7 7 4 3 2 2 2 2 1 1 2 2 3 3 2 2 1 1 0 0 0 0 1 1 1 1 1 1 1 2 3
11 8 10 10 12 13 13 17 14 9 10 10 10 10 9 8 7 6 6 6 4 3 2 2 2 2 1 1 1 2 2 2 1 1 2 1 1 0 0 1 1 1 1 1 1 1 1 1 2
7 9 10 10 12 19 14 14 16 13 10 9 8 8 8 8 7 6 5 5 4 5 6 3 2 2 2 1 2 2 2 2 2 2 2 2 1 1 1 1 1 0 1 1 2 1 1 1 1
9 12 19 19 20 20 13 14 13 10 8 7 7 7 7 8 8 8 6 5 4 4 5 6 6 3 2 2 2 2 2 2 2 2 2 2 2 1 1 1 1 1 1 1 1 2 1 1 2
12 12 18 22 21 19 13 17 13 8 7 6 6 7 7 7 7 6 6 5 4 3 4 4 4 5 6 5 2 1 1 2 2 2 2 2 2 1 1 1 1 1 1 1 1 1 2 1 1
12 14 10 16 15 19 16 12 9 8 8 7 7 7 7 6 6 7 7 7 6 5 3 3 3 3 3 3 3 3 4 2 2 2 3 3 3 2 2 1 1 1 1 1 1 1 2 2 2
11 10 16 16 22 23 18 15 14 11 9 8 9 8 7 7 7 7 7 7 7 6 4 3 2 2 2 2 2 3 2 3 3 2 2 2 2 2 2 2 2 2 2 2 2 2 2 2 2
13 14 13 14 16 21 21 18 11 11 10 9 9 8 9 9 8 8 8 7 7 7 7 6 3 3 3 3 3 2 2 2 2 2 3 2 3 3 2 2 2 2 2 2 2 2 2 2 2
10 13 13 21 21 17 18 18 10 9 10 9 9 8 8 9 9 8 8 8 8 8 8 8 6 4 4 4 4 4 2 2 3 3 2 2 2 2 2 2 2 2 2 2 2 2 2 2 2